Presure
132 145 116 131 147 155 142 152 162 473 464 413 216 197 137 171 135 182 146 176 216 217 162 134 135 139 142 147 142 128 134 136 93 133 132 130 133 135 143 153 168 166 176 136
138 155 133 130 154 159 192 185 181 178 146 165 150 155 148 141 149 134 155 149 211 139 129 135 138 136 133 136 133 144 145 116 140 148 140 141 144 137 151 156 195 198 175 179
147 164 167 150 199 116 157 144 128 156 154 139 170 156 158 147 152 154 161 145 145 149 251 136 148 133 139 133 142 136 100 143 142 143 139 135 138 149 166 174 190 187 184 217
142 180 171 190 383 154 146 291 133 204 158 153 150 384 135 138 133 152 146 146 136 149 140 130 128 128 141 140 130 140 142 139 135 139 136 141 147 151 153 162 191 203 179 193
157 178 306 160 145 254 162 344 248 334 140 332 327 341 359 164 164 177 151 156 138 133 132 136 135 132 133 132 139 87 138 142 143 143 144 144 150 152 162 177 172 178 179 170
202 129 266 133 170 240 139 146 325 316 308 299 314 309 325 341 342 339 343 359 141 148 143 138 163 174 138 138 144 161 159 152 152 170 196 197 157 188 170 148 164 185 174 189
244 204 156 135 145 166 322 326 298 291 291 308 296 286 292 299 313 329 341 358 170 174 179 172 203 221 214 178 155 193 167 164 166 182 166 161 155 196 177 183 164 166 183 180
189 311 343 329 190 230 290 290 282 276 290 297 297 281 299 296 316 310 332 335 276 179 169 171 171 164 191 164 167 173 184 185 163 161 191 189 174 174 163 180 188 169 174 180
162 350 147 141 293 130 282 282 274 275 280 289 297 299 303 316 312 318 341 281 213 246 239 184 180 174 171 172 171 171 170 171 170 170 197 175 167 185 174 187 198 187 171 178
244 293 142 228 182 121 289 283 275 275 270 281 289 302 315 329 337 311 307 254 221 230 233 210 220 185 206 189 188 215 184 171 203 164 173 166 187 182 185 212 195 188 172 185
147 138 209 290 173 290 284 278 283 280 252 280 267 285 289 290 277 309 306 225 222 225 218 205 207 205 207 209 200 204 205 198 197 175 175 182 189 178 190 195 186 205 193 201
275 273 272 109 295 254 236 288 266 223 269 255 273 279 276 277 288 305 308 241 229 249 217 244 220 232 212 209 213 200 184 201 195 195 192 194 204 210 209 200 184 190 201 196
245 153 172 235 191 273 253 247 256 253 259 228 260 263 284 272 266 280 279 261 243 233 246 227 216 212 207 210 207 208 196 191 206 191 194 193 198 200 193 198 188 200 190 199
159 280 148 266 135 227 276 204 181 178 209 282 273 270 183 278 265 283 294 232 216 236 229 227 219 216 217 196 194 199 202 199 205 201 205 201 209 204 192 206 197 202 208 189
179 218 126 286 224 197 154 264 274 131 186 319 315 258 276 205 245 198 216 230 219 228 232 201 201 225 213 229 211 194 202 211 207 202 204 208 175 194 191 169 210 214 204 185
203 208 177 173 210 257 266 135 178 263 134 261 139 185 281 293 245 287 232 208 221 243 221 229 209 225 224 210 222 220 212 206 183 200 147 213 214 222 205 205 204 205 210 191
208 179 198 172 174 145 242 180 145 236 245 200 250 224 137 278 281 239 268 223 210 248 205 221 220 193 227 211 209 100 99 210 213 203 205 205 204 187 187 199 201 190 192 202
168 197 180 234 242 183 171 176 179 149 175 212 123 221 125 175 134 290 225 189 228 219 199 208 196 211 207 194 209 184 190 215 222 215 207 203 210 206 203 202 202 212 216 214
217 137 187 175 172 173 161 152 140 144 141 115 178 224 207 205 190 148 216 289 210 199 204 255 210 199 150 206 236 193 212 192 187 211 193 193 222 207 215 206 210 216 204 201
194 182 187 187 152 163 137 146 173 181 212 184 141 158 143 120 179 113 272 141 252 298 190 275 224 211 237 221 239 201 202 204 233 231 213 216 191 228 188 225 224 204 213 201
180 176 198 171 151 179 173 159 173 171 137 160 127 144 125 121 166 127 205 177 114 183 245 277 233 193 207 167 246 259 256 258 277 224 229 210 229 256 252 211 227 239 224 219
199 188 186 183 179 200 151 173 183 155 159 152 142 159 130 158 220 133 174 191 186 207 224 207 222 249 207 230 199 246 339 271 240 241 248 230 262 260 266 285 288 238 233 258
192 192 178 172 193 171 187 193 149 157 151 167 129 132 135 126 152 133 223 218 208 180 184 213 245 227 258 255 306 319 266 285 428 422 345 239 399 380 245 242 232 270 273 325
191 189 189 194 175 171 173 203 184 186 190 158 149 147 176 143 135 131 153 170 206 183 193 201 218 244 250 242 245 278 469 454 446 429 377 364 415 406 393 400 408 413 410 405
194 194 198 179 190 179 189 184 181 159 164 150 141 140 150 127 141 145 163 153 161 206 186 202 215 247 262 286 270 293 461 458 415 383 360 398 416 370 379 431 444 453 464 439
194 192 194 192 189 188 189 185 197 180 186 191 132 138 132 146 135 149 153 163 193 239 177 197 183 245 262 245 309 288 418 393 453 455 418 426 365 356 450 441 414 413 410 418
Wind_Speed
35 48 18 38 47 50 43 52 59 14 20 29 62 63 44 59 46 70 57 65 71 70 77 54 60 65 65 66 68 64 70 71 40 59 59 57 67 70 74 70 74 73 80 58
37 45 31 30 48 50 50 53 54 55 43 52 50 61 62 50 51 51 64 50 74 63 61 67 67 57 54 66 65 72 78 57 74 66 69 71 76 77 76 75 78 82 82 83
42 40 42 41 47 26 40 28 22 48 51 38 66 61 70 63 70 66 68 66 58 69 70 79 79 61 63 64 76 74 48 83 74 76 76 73 80 81 77 82 86 77 84 78
37 36 36 39 39 36 28 22 25 23 52 55 58 11 57 61 59 72 72 71 65 71 82 72 68 65 82 79 66 81 81 80 80 83 79 84 85 81 80 82 84 70 87 80
29 34 23 37 26 18 37 48 14 47 41 38 29 25 10 68 69 83 77 78 71 80 76 83 81 78 82 70 83 44 82 87 90 89 89 89 86 84 84 88 92 94 92 88
19 21 9 11 30 15 28 39 51 48 39 22 34 26 19 21 21 26 26 42 81 89 89 85 75 80 87 86 90 87 91 94 94 85 91 90 87 94 88 73 83 103 95 96
7 4 18 10 28 17 46 40 39 33 32 21 35 21 23 20 29 25 29 27 89 88 90 92 87 90 92 89 92 91 92 92 90 84 86 87 85 99 94 100 90 92 102 99
15 23 34 56 8 28 39 45 39 25 26 23 26 21 24 24 25 32 32 37 103 87 89 90 91 92 87 91 90 90 92 93 90 87 99 99 91 93 82 101 108 96 100 107
9 44 25 27 48 21 35 38 28 28 25 24 17 5 5 12 19 21 20 99 91 87 113 94 92 91 90 90 92 91 92 93 91 92 110 96 90 107 94 105 112 113 97 107
17 37 31 28 7 11 38 34 28 22 17 20 30 30 27 11 10 24 39 109 98 111 97 93 107 91 100 96 100 114 96 88 108 85 92 90 105 100 106 112 119 113 97 118
16 23 21 38 15 35 32 25 27 22 34 32 22 25 27 32 26 25 27 102 107 111 104 93 100 105 111 107 103 104 110 107 107 96 99 102 104 96 111 120 112 115 121 124
56 55 51 15 31 48 20 27 29 25 38 32 32 19 31 26 19 12 27 120 117 89 99 105 113 119 111 110 109 108 99 108 112 113 111 116 118 122 122 124 110 121 127 128
32 8 14 37 10 32 39 36 35 30 26 22 23 17 25 28 29 40 77 81 104 106 86 109 108 108 105 110 109 117 106 106 118 112 116 115 112 123 110 113 112 119 118 129
2 46 11 40 23 26 38 22 8 11 9 14 21 16 7 10 18 18 30 107 76 107 107 117 109 110 115 82 86 102 113 97 124 120 121 123 128 129 106 123 130 135 131 117
17 33 21 39 30 27 8 46 40 2 13 15 14 4 5 3 3 25 52 92 65 102 94 53 53 118 102 121 118 73 100 124 126 118 124 128 82 103 118 89 133 137 134 113
18 32 22 19 29 53 50 3 13 43 8 38 3 13 31 35 7 19 91 26 60 124 78 107 46 123 116 95 119 121 114 101 91 109 66 128 134 132 129 133 135 137 138 126
37 25 29 14 10 11 49 18 9 40 39 22 35 19 15 22 18 5 79 70 51 95 55 88 100 41 119 101 99 35 35 116 131 122 129 131 129 101 101 127 136 115 120 141
19 22 11 48 48 24 13 12 15 5 9 26 20 19 20 14 23 10 63 56 90 95 66 99 69 84 88 74 119 68 74 115 135 140 129 126 134 139 146 142 142 153 143 149
36 12 17 11 22 10 16 17 16 17 22 35 14 24 21 6 8 16 10 9 76 62 70 79 105 89 49 108 101 90 136 100 86 139 106 100 155 140 153 136 139 147 142 138
9 7 9 10 26 18 20 28 17 18 26 12 23 9 26 41 13 31 19 44 25 6 36 69 103 112 102 107 118 122 118 129 144 156 145 156 87 162 87 158 161 129 144 128
6 7 15 14 26 9 2 14 8 22 24 13 29 19 33 41 26 31 38 20 41 23 32 24 43 41 52 56 77 78 96 108 107 147 148 121 158 149 165 116 150 182 149 144
9 6 7 8 6 18 26 5 9 13 23 30 10 14 25 38 36 38 29 19 36 34 38 36 50 38 55 59 83 77 84 75 98 109 113 94 125 137 142 143 152 151 145 192
11 11 9 10 16 12 19 23 25 20 33 12 21 34 37 24 26 50 42 45 44 27 36 47 55 58 62 68 84 81 69 77 67 70 89 121 78 86 130 136 125 136 140 116
15 16 16 17 14 16 13 19 18 27 29 8 30 25 35 39 43 41 34 29 51 45 45 65 62 69 71 70 72 75 64 63 63 63 58 60 73 74 75 76 80 83 82 80
21 19 17 22 21 25 22 22 24 28 24 34 36 25 26 35 41 49 57 56 48 63 62 67 74 74 87 98 84 92 60 57 57 55 54 57 50 46 53 60 45 41 42 55
28 28 28 25 24 26 28 30 27 29 33 35 37 44 43 46 47 51 39 42 71 69 63 73 74 83 97 81 112 95 65 62 56 55 55 46 33 43 42 29 25 22 25 33
Wind_Direction
262 257 244 262 257 258 272 260 253 278 268 257 245 239 262 246 256 240 251 230 218 233 234 264 261 260 259 247 256 275 273 275 259 273 275 280 280 283 278 272 265 270 259 271
261 253 268 281 261 263 258 252 249 246 257 244 248 251 253 265 261 262 243 246 218 255 265 262 260 265 266 268 268 258 261 265 273 265 272 271 270 279 273 271 247 247 263 262
257 253 257 268 259 237 259 269 260 266 267 269 243 248 246 256 251 246 241 251 243 238 214 256 251 265 258 263 264 268 255 268 268 268 272 275 275 271 264 259 249 258 255 254
265 257 264 252 78 269 287 65 283 306 263 263 262 45 268 263 262 242 255 250 254 233 243 265 269 270 260 263 271 266 267 271 276 272 276 271 272 273 273 271 248 249 262 253
269 252 90 269 290 53 294 67 28 66 284 63 58 48 24 253 253 231 250 241 252 252 258 259 262 264 263 271 268 235 271 268 266 267 267 269 270 272 269 259 265 260 259 270
244 258 116 309 295 50 307 291 76 72 77 94 88 81 80 107 139 179 197 193 247 244 246 255 244 237 262 265 260 250 255 260 261 252 234 235 268 245 262 277 266 255 266 255
139 265 239 316 303 346 84 89 88 90 86 89 115 122 147 172 165 162 187 178 232 231 230 236 218 205 210 239 251 227 252 256 258 246 259 264 269 240 260 254 277 276 261 265
262 102 94 99 343 85 95 95 99 109 89 96 134 167 169 180 168 184 181 186 172 229 236 237 240 243 231 248 250 250 241 240 262 264 237 239 258 263 268 257 250 273 270 266
183 92 293 302 102 338 104 105 111 104 90 64 72 110 155 173 175 156 174 171 203 182 187 232 237 241 245 247 250 253 255 258 259 260 233 257 267 249 267 255 246 252 277 268
102 102 291 121 34 315 116 115 87 97 85 66 64 83 73 108 149 157 176 172 192 189 197 211 200 237 216 236 236 217 245 255 231 266 259 268 250 260 258 245 248 255 273 262
277 287 75 92 307 112 107 105 95 91 71 53 64 83 84 117 170 204 180 185 196 196 204 214 214 217 216 220 229 228 227 235 236 261 264 259 251 263 253 248 259 252 256 253
90 87 79 258 96 103 124 114 79 65 63 74 56 108 127 134 157 155 201 184 195 190 208 202 206 206 215 219 217 231 252 236 239 241 246 244 242 240 241 246 262 260 254 255
91 352 39 82 74 97 95 83 90 90 77 90 74 92 150 167 173 186 189 198 194 197 199 205 211 215 220 222 225 225 239 244 235 247 246 250 248 247 251 246 260 254 259 259
16 82 213 94 292 79 84 75 75 353 37 56 55 66 217 168 206 199 195 192 209 201 206 206 213 219 220 238 239 241 236 248 236 243 244 247 242 245 260 251 256 255 254 269
26 72 296 88 91 66 84 81 80 199 48 41 38 172 69 250 237 216 206 196 212 211 212 234 248 217 227 221 230 253 248 239 239 248 247 245 271 261 257 268 253 253 258 272
67 67 52 37 74 80 81 247 24 78 275 77 237 57 76 73 91 52 199 253 226 206 227 220 264 221 223 237 230 231 236 250 257 258 275 246 246 246 251 252 256 259 258 268
79 49 60 20 32 316 78 69 65 81 74 77 76 65 341 75 71 316 198 211 228 217 243 225 232 266 230 242 242 283 288 247 241 250 249 250 256 267 270 265 261 270 270 264
349 57 42 74 72 42 59 78 61 275 24 76 293 72 304 8 339 66 224 221 216 218 243 233 255 243 242 251 237 269 267 245 241 243 252 257 257 255 256 261 262 258 260 258
72 346 40 28 8 37 357 339 310 331 295 305 37 78 20 95 353 343 327 6 230 240 239 240 236 249 266 250 252 264 244 264 271 252 268 269 251 257 257 263 261 258 266 268
91 344 119 110 338 334 281 344 42 24 53 55 294 328 348 281 286 321 28 336 200 270 306 245 241 245 248 254 250 258 261 261 253 250 256 257 280 254 279 257 257 267 262 267
284 313 52 262 321 347 296 312 44 356 315 9 260 325 291 271 345 279 357 264 284 282 333 266 242 287 282 304 255 260 259 258 260 256 257 269 258 259 258 269 261 257 263 263
19 336 339 347 295 29 304 299 6 314 329 322 313 13 340 347 5 336 352 357 337 337 339 305 319 303 267 282 266 283 316 282 258 255 257 265 257 258 260 259 257 259 264 257
326 336 313 299 356 318 357 354 298 268 286 327 332 320 325 340 336 330 352 348 351 283 309 321 329 323 323 323 329 321 301 302 288 284 272 268 270 267 261 263 274 257 258 250
309 317 325 331 314 320 327 344 310 344 349 256 291 318 347 311 335 337 323 2 340 354 340 339 337 332 329 321 318 321 299 295 287 284 290 286 273 273 273 273 269 265 261 258
299 301 303 316 315 318 321 324 334 267 297 265 285 318 301 336 314 308 327 316 320 339 337 335 338 338 337 343 332 335 305 298 301 300 298 288 288 283 285 285 276 275 256 247
294 299 300 303 305 309 312 320 320 334 329 331 306 294 317 308 319 303 329 334 333 340 345 334 333 337 345 330 344 339 319 317 302 293 289 286 283 294 305 286 273 266 251 241